This is the latest recevied weather packets stored in our database for station/object WW4HG. If no packets are shown the sender has not sent any weather packets the latest 10 day(s).
| Time | Temp. | Humidity | Pressure | Rain* | Wind** | Luminosity | Snow |
|---|---|---|---|---|---|---|---|
| 1778162382 | 20.56° C | 63% | 1012.9 hPa | 0 mm | - | 62 W/m² | - |
| 1778162079 | 20.56° C | 63% | 1012.6 hPa | 0 mm | - | 58 W/m² | - |
| 1778161776 | 20.56° C | 63% | 1012.3 hPa | 0 mm | - | 63 W/m² | - |
| 1778161473 | 20.56° C | 63% | 1012.3 hPa | 0 mm | - | 63 W/m² | - |
| 1778161169 | 20.56° C | 63% | 1011.9 hPa | 0 mm | - | 67 W/m² | - |
| 1778160864 | 20° C | 64% | 1012.3 hPa | 0 mm | - | 66 W/m² | - |
| 1778160558 | 20° C | 64% | 1011.9 hPa | 0 mm | - | 93 W/m² | - |
| 1778160254 | 20° C | 65% | 1011.6 hPa | 0 mm | - | 93 W/m² | - |
| 1778159950 | 20° C | 66% | 1011.2 hPa | 0 mm | - | 88 W/m² | - |
| 1778159648 | 20° C | 68% | 1011.2 hPa | 0 mm | - | 83 W/m² | - |
| 1778159344 | 20° C | 67% | 1011.2 hPa | 0 mm | - | 60 W/m² | - |
| 1778159041 | 20° C | 68% | 1010.6 hPa | 0 mm | - | 35 W/m² | - |
| 1778158740 | 20° C | 68% | 1010.2 hPa | 0 mm | - | 37 W/m² | - |
| 1778158437 | 20° C | 69% | 1010.2 hPa | 0 mm | - | 35 W/m² | - |
| 1778158135 | 20° C | 69% | 1010.2 hPa | 0 mm | - | 35 W/m² | - |
| 1778157830 | 20° C | 69% | 1010.9 hPa | 0 mm | - | 26 W/m² | - |
| 1778157529 | 20° C | 70% | 1011.2 hPa | 0 mm | - | 20 W/m² | - |
| 1778157226 | 20° C | 70% | 1011.2 hPa | 0 mm | - | 17 W/m² | - |
| 1778156922 | 20° C | 71% | 1011.9 hPa | 0 mm | - | 19 W/m² | - |
| 1778156618 | 20° C | 71% | 1011.9 hPa | 0 mm | - | 29 W/m² | - |
| 1778156314 | 20° C | 72% | 1011.9 hPa | 0 mm | - | 41 W/m² | - |
| 1778156010 | 19.44° C | 72% | 1011.9 hPa | 0 mm | - | 37 W/m² | - |
| 1778155707 | 19.44° C | 72% | 1011.9 hPa | 0 mm | - | 39 W/m² | - |
| 1778155403 | 19.44° C | 73% | 1012.3 hPa | 0 mm | - | 16 W/m² | - |
| 1778155099 | 19.44° C | 74% | 1012.3 hPa | 0 mm | - | 13 W/m² | - |
* Rain latest hour (hover to see other rain measurements)
** Current wind speed in m/s (hover to see current wind gust speed)